Weather History for Punta Gorda, FL

Change the Weather History Date:

Wednesday, February 13, 2013

  Actual Average Record
Temperature  
Mean Temperature 74 °F -  
Max Temperature 84 °F 74 °F 86 °F (1997)
Min Temperature 63 °F 51 °F 35 °F (2012)
Cooling Degree Days 8    
Growing Degree Days 24 (Base 50)    
Moisture  
Dew Point 67 °F    
Average Humidity 85    
Maximum Humidity 100    
Minimum Humidity 58    
Precipitation  
Precipitation 0.05 in - - ()
Sea Level Pressure  
Sea Level Pressure 29.98 in    
Wind  
Wind Speed 8 mph (SSW)    
Max Wind Speed 20 mph    
Max Gust Speed 29 mph    
Visibility 7 miles    
Events Fog    
Averages and records for this station are not official NWS values.
T = Trace of Precipitation, MM = Missing Value Source: NWS Daily Summary

Daily Weather History Graph

Daily Weather History Graph

Search for Another Location

Airport:

Trip Planner

Search our weather history database for the weather conditions in past years. The results will help you decide how hot, cold, wet, or windy it might be!

Date:

Astronomy

Feb. 13, 2013 Rise Set
Actual Time 7:05 AM EST 6:19 PM EST
Civil Twilight 6:41 AM EST 6:42 PM EST
Nautical Twilight 6:14 AM EST 7:10 PM EST
Astronomical Twilight 5:47 AM EST 7:37 PM EST
Moon 8:59 AM EST (2/13) 9:51 PM EST (2/13)
Length of Visible Light 12h 00m
Length of Day
11h 13m
Waxing Crescent, 13% of the Moon is Illuminated
Feb 13
Waxing Crescent
Feb 17
First Quarter
Feb 25
Full
Mar 4
Last Quarter
Mar 11
New

Hourly Weather History & Observations

Time (EST) Temp. Heat Index Dew Point Humidity Pressure Visibility Wind Dir Wind Speed Gust Speed Precip Events Conditions
12:53 AM 69.1 °F - 66.9 °F 93% 30.01 in 8.0 mi South 6.9 mph - N/A   Clear
1:53 AM 69.1 °F - 66.9 °F 93% 29.99 in 8.0 mi South 6.9 mph - N/A   Clear
2:53 AM 66.0 °F - 64.9 °F 96% 29.99 in 4.0 mi South 3.5 mph - N/A   Clear
2:58 AM 66.2 °F - 66.2 °F 100% 29.99 in 1.5 mi South 3.5 mph - N/A   Partly Cloudy
3:03 AM 66.2 °F - 64.4 °F 94% 29.99 in 0.8 mi South 3.5 mph - N/A   Mist
3:37 AM 64.4 °F - 64.4 °F 100% 29.98 in 0.2 mi Calm Calm - N/A Fog Fog
3:44 AM 64.4 °F - 62.6 °F 94% 29.98 in 0.2 mi Calm Calm - N/A Fog Fog
3:53 AM 63.0 °F - 63.0 °F 100% 29.99 in 0.2 mi Calm Calm - N/A Fog Fog
4:45 AM 66.2 °F - 64.4 °F 94% 29.97 in 0.5 mi SSE 4.6 mph - 0.01 in Fog Fog
4:53 AM 66.0 °F - 64.9 °F 96% 29.98 in 0.5 mi SSE 5.8 mph - 0.01 in Fog Fog
5:01 AM 66.2 °F - 66.2 °F 100% 29.97 in 0.5 mi SSE 6.9 mph - N/A Fog Fog
5:11 AM 66.2 °F - 66.2 °F 100% 29.97 in 2.0 mi SSE 5.8 mph - N/A   Overcast
5:20 AM 68.0 °F - 66.2 °F 94% 29.97 in 4.0 mi SSE 5.8 mph - N/A   Overcast
5:53 AM 70.0 °F - 69.1 °F 97% 29.98 in 7.0 mi South 8.1 mph - N/A   Overcast
6:51 AM 71.6 °F - 69.8 °F 94% 29.98 in 7.0 mi South 8.1 mph - N/A   Overcast
6:53 AM 71.1 °F - 70.0 °F 96% 29.99 in 7.0 mi South 8.1 mph - N/A   Overcast
7:13 AM 71.6 °F - 69.8 °F 94% 29.98 in 8.0 mi South 11.5 mph - N/A   Scattered Clouds
7:53 AM 73.0 °F - 70.0 °F 90% 29.99 in 9.0 mi South 9.2 mph - N/A   Mostly Cloudy
8:53 AM 75.0 °F - 71.1 °F 87% 30.01 in 10.0 mi South 10.4 mph - N/A   Mostly Cloudy
9:06 AM 77.0 °F - 71.6 °F 83% 30.01 in 10.0 mi South 13.8 mph 19.6 mph N/A   Scattered Clouds
9:16 AM 77.0 °F - 71.6 °F 83% 30.01 in 10.0 mi SSW 13.8 mph 20.7 mph N/A   Mostly Cloudy
9:28 AM 75.2 °F - 71.6 °F 89% 30.01 in 10.0 mi SSW 12.7 mph - N/A   Scattered Clouds
9:53 AM 79.0 °F - 70.0 °F 74% 30.02 in 10.0 mi SSW 15.0 mph - N/A   Clear
10:53 AM 82.0 °F 84.9 °F 68.0 °F 62% 30.01 in 10.0 mi SSW 15.0 mph - N/A   Clear
11:53 AM 82.9 °F 85.8 °F 68.0 °F 60% 30.00 in 10.0 mi SW 17.3 mph - N/A   Clear
12:53 PM 84.0 °F 87.0 °F 68.0 °F 58% 29.98 in 10.0 mi SW 18.4 mph - N/A   Clear
1:53 PM 82.9 °F 85.8 °F 68.0 °F 60% 29.95 in 10.0 mi SW 18.4 mph 28.8 mph N/A   Clear
2:53 PM 82.9 °F 86.5 °F 69.1 °F 63% 29.93 in 10.0 mi SW 18.4 mph 26.5 mph N/A   Partly Cloudy
3:53 PM 81.0 °F 83.8 °F 68.0 °F 65% 29.93 in 10.0 mi SW 19.6 mph - N/A   Clear
4:53 PM 80.1 °F 82.9 °F 69.1 °F 69% 29.93 in 10.0 mi SW 13.8 mph 24.2 mph N/A   Clear
5:53 PM 77.0 °F - 69.1 °F 76% 29.94 in 10.0 mi SW 15.0 mph 20.7 mph N/A   Clear
6:53 PM 75.0 °F - 70.0 °F 84% 29.93 in 10.0 mi SSW 13.8 mph - N/A   Clear
7:53 PM 75.0 °F - 71.1 °F 87% 29.96 in 10.0 mi SW 8.1 mph - N/A   Mostly Cloudy
8:53 PM 73.9 °F - 71.1 °F 91% 29.97 in 8.0 mi SW 9.2 mph - N/A   Partly Cloudy
9:31 PM 73.4 °F - 71.6 °F 94% 29.97 in 8.0 mi SW 8.1 mph - N/A   Scattered Clouds
9:53 PM 73.9 °F - 71.1 °F 91% 29.98 in 7.0 mi SW 9.2 mph - N/A   Mostly Cloudy
10:21 PM 68.0 °F - 57.2 °F 68% 30.00 in 10.0 mi North 10.4 mph 20.7 mph N/A   Overcast
10:29 PM 66.2 °F - 55.4 °F 68% 30.00 in 10.0 mi North 13.8 mph - N/A   Overcast
10:53 PM 63.0 °F - 57.0 °F 81% 30.02 in 10.0 mi North 10.4 mph - 0.04 in   Overcast
11:53 PM 64.0 °F - 57.9 °F 80% 30.02 in 10.0 mi North 3.5 mph - N/A   Overcast